Theta_e
342 344 346 348 349 348 348 348 349 350 349 349 349 349 349 348 347 345 346 345 344 343 343 343 342 343 342 342 341 339 338 338 339 339 337 334 332 330 328 324 321 321 322 323 325 327 326 325 322 318 318 325
338 341 344 345 344 345 345 345 347 347 346 346 346 345 344 343 343 343 345 345 343 342 342 344 344 342 342 342 340 339 337 338 339 337 335 333 332 330 327 323 321 321 321 321 323 324 323 321 320 318 317 324
342 334 339 341 341 341 342 343 343 344 342 341 342 342 339 337 336 336 338 340 341 341 340 339 340 343 343 341 340 338 337 338 337 336 334 332 331 329 326 323 321 320 319 319 321 322 320 317 314 313 318 322
345 335 332 336 337 338 340 340 341 340 338 336 336 335 334 329 333 332 336 330 339 335 338 336 337 339 340 342 338 336 337 338 336 335 333 332 330 328 325 322 321 320 318 317 318 319 317 314 311 318 318 320
344 343 330 332 332 333 335 337 336 337 332 328 328 330 325 324 339 341 341 337 342 329 342 330 329 335 339 341 338 338 339 337 336 335 333 332 330 326 321 318 315 315 315 315 315 316 313 309 316 314 317 319
343 343 336 342 342 342 339 333 331 338 344 331 340 322 330 339 339 341 340 340 334 339 340 334 325 330 335 339 335 336 338 337 336 335 333 331 328 323 318 311 310 306 307 311 311 310 307 312 313 313 314 317
343 343 342 342 342 342 334 337 338 342 339 339 339 340 340 338 340 340 340 340 336 336 328 336 324 328 331 335 332 333 337 337 336 335 333 331 326 321 314 311 308 304 305 306 304 303 308 310 310 311 312 314
342 343 342 342 341 341 343 342 340 342 341 338 336 338 339 339 339 340 340 330 325 329 335 333 324 324 327 328 327 327 332 333 334 333 332 329 323 316 310 309 305 303 303 304 304 305 304 306 308 310 311 311
341 342 342 343 342 341 339 342 343 342 341 338 338 338 338 339 338 339 340 338 337 338 338 334 332 332 332 334 333 324 331 333 330 328 327 324 316 313 312 309 304 302 302 303 303 304 303 304 306 308 309 308
340 340 341 340 342 342 341 340 339 339 339 339 339 339 338 335 336 337 337 337 337 338 337 337 335 333 330 329 330 330 328 329 329 326 326 323 318 312 309 307 304 304 302 303 303 302 303 303 304 306 307 307
339 340 341 340 340 340 340 340 339 338 338 338 339 340 338 337 336 335 337 334 335 336 335 336 336 332 331 330 328 326 326 325 326 325 324 322 318 310 308 304 304 304 304 304 305 304 304 304 304 304 305 307
338 339 340 340 335 340 338 337 339 339 340 338 336 334 336 336 338 337 336 335 334 332 331 332 332 328 328 330 328 324 322 322 323 324 322 320 315 311 308 306 305 305 304 304 305 307 305 304 303 304 303 304
337 337 338 337 337 338 336 340 339 337 337 338 337 335 334 332 335 336 336 336 335 332 331 331 329 325 327 328 327 323 323 322 321 321 320 319 315 311 308 306 306 305 304 303 303 305 306 305 303 303 303 303
335 335 335 335 336 336 332 337 339 337 335 334 336 337 334 332 332 333 334 334 333 331 331 331 330 328 329 329 327 325 322 321 321 319 318 317 314 311 309 308 306 305 306 304 303 303 304 304 302 301 302 303
333 333 333 333 335 335 335 336 336 338 337 335 335 335 334 333 329 329 331 333 331 330 331 329 328 325 322 324 326 326 324 320 319 318 318 317 314 314 311 310 305 305 307 305 303 301 303 303 301 301 301 301
329 331 331 331 333 334 333 330 333 332 330 328 329 329 329 329 328 326 328 327 327 327 326 327 325 323 321 322 324 324 322 317 316 317 316 315 315 313 311 307 304 303 307 306 303 301 302 301 301 301 300 301
325 325 325 323 321 321 321 321 321 321 320 321 322 322 323 323 324 325 324 324 324 321 327 326 326 324 321 321 321 321 318 315 314 313 313 311 310 309 309 307 305 303 303 306 304 301 301 300 302 300 300 301
319 319 318 317 317 317 317 317 316 316 317 317 317 318 318 320 320 322 323 323 322 322 322 321 321 321 319 318 318 317 315 315 315 315 314 310 311 309 311 312 310 307 309 307 302 302 300 300 300 299 300 300
315 315 315 314 314 313 313 312 312 312 313 313 314 314 315 316 316 318 320 321 322 320 320 319 317 316 316 315 316 316 315 314 313 314 313 310 311 308 309 308 306 305 306 305 306 304 300 300 299 299 299 299
312 311 310 309 308 308 309 308 308 309 309 309 309 310 310 312 313 314 316 317 319 317 317 316 315 314 313 314 314 313 312 312 311 311 310 307 309 309 308 306 305 302 303 303 303 301 300 299 298 299 299 299
308 307 305 305 304 304 304 303 302 303 303 304 305 305 306 307 309 311 311 313 314 313 313 313 312 312 312 313 313 312 311 310 309 309 308 306 305 307 307 305 303 304 302 302 300 299 299 299 298 299 299 298
305 304 303 302 301 301 299 299 299 299 300 300 300 300 301 302 304 306 308 309 310 310 310 310 310 310 311 312 312 310 309 308 308 308 309 306 303 304 306 303 301 301 299 298 299 299 299 299 298 299 298 298
305 303 301 300 299 298 298 297 296 296 296 297 297 297 297 298 300 301 303 305 306 305 306 307 307 308 309 311 310 308 308 308 306 306 307 307 303 300 300 302 300 300 299 299 299 299 299 297 298 298 297 297
302 301 300 299 298 296 296 295 294 294 294 295 295 295 295 296 297 298 299 300 302 303 303 303 303 305 307 308 308 307 306 305 305 305 306 304 305 303 301 300 300 299 297 297 298 299 300 299 298 298 297 297
300 299 296 296 294 293 293 293 293 292 292 292 292 293 294 294 295 296 297 298 299 300 300 300 301 301 302 304 303 303 302 303 302 303 304 303 301 303 303 300 298 298 297 298 302 300 301 300 299 296 297 296
296 296 296 294 292 292 291 291 291 290 290 290 291 291 291 292 293 293 294 295 296 296 297 297 297 298 298 299 300 299 299 299 299 300 300 302 302 300 299 297 297 298 300 300 296 296 297 298 299 299 295 296
295 295 295 294 293 292 290 291 290 290 289 289 288 288 289 290 290 291 292 293 293 294 294 295 295 295 296 296 297 297 296 297 297 297 298 299 299 300 300 298 298 297 297 296 296 296 295 296 296 301 299 296
294 294 293 293 293 292 291 289 289 288 288 288 287 286 287 287 288 289 289 290 291 292 292 292 293 293 293 294 295 295 295 295 294 295 296 297 297 299 298 298 297 297 296 295 296 296 294 294 291 295 295 293
294 293 292 292 291 291 290 289 288 287 285 286 286 285 285 286 287 287 287 288 288 289 289 290 291 291 291 292 292 293 293 293 293 294 295 295 296 295 296 296 296 297 297 297 296 293 293 293 294 293 292 291
293 293 293 292 290 287 286 284 284 283 283 283 284 284 285 286 286 286 286 286 287 287 287 287 288 289 289 289 290 291 291 292 292 292 292 293 294 294 295 295 294 294 297 296 296 296 294 293 290 288 290 291
290 289 288 287 286 285 284 283 283 284 284 284 284 285 284 285 285 285 285 285 286 286 286 286 286 287 287 287 287 288 289 289 290 291 291 292 292 292 293 294 293 292 293 296 295 295 296 295 294 292 290 288
Wind_Speed
5 6 6 5 6 6 4 4 4 4 3 4 3 3 3 3 2 1 4 7 6 6 7 5 5 4 5 5 6 5 5 8 9 10 9 9 9 9 10 10 10 9 8 7 7 7 7 7 7 6 4 3
4 6 7 6 6 7 5 4 4 4 4 3 3 3 2 2 2 4 4 4 5 6 3 4 4 4 4 6 5 5 7 9 10 9 9 9 9 9 10 10 9 9 8 8 8 7 7 7 7 6 4 3
4 6 8 8 6 6 7 6 5 4 4 3 3 4 4 4 4 5 5 4 4 5 4 2 4 4 3 6 6 6 9 9 9 9 9 8 9 9 10 10 9 8 8 8 7 7 7 6 5 6 3 3
5 5 6 8 8 8 7 7 6 6 5 4 4 4 5 5 4 4 4 7 3 5 5 4 5 5 2 4 7 8 9 10 9 9 8 8 8 9 9 10 9 9 9 8 7 7 6 5 4 3 2 2
6 5 6 5 9 8 8 7 6 6 6 5 3 4 5 5 3 3 3 3 3 5 5 4 4 4 3 4 6 8 10 9 9 9 8 8 8 9 9 9 9 8 9 8 8 7 6 5 3 2 2 2
5 4 5 6 5 7 6 6 6 5 4 4 3 5 3 2 3 3 3 3 2 3 5 6 6 8 4 2 1 7 12 11 9 10 8 8 8 8 8 8 4 3 5 8 8 7 5 3 2 2 2 2
4 5 5 5 5 4 4 5 5 4 4 3 4 4 3 2 2 3 4 3 2 1 2 5 11 11 10 9 6 5 10 10 10 11 9 8 7 8 7 4 3 2 2 3 6 5 4 2 2 2 3 2
4 4 5 5 4 4 7 5 4 6 5 5 5 5 3 3 3 4 3 4 5 3 2 0 3 5 6 10 8 8 6 10 9 12 10 8 7 4 2 2 2 2 2 2 2 2 2 2 3 3 3 2
4 5 5 5 5 3 2 5 8 7 6 6 5 5 5 4 3 3 3 4 3 3 2 0 1 2 2 1 6 8 5 4 6 7 6 3 3 2 2 2 2 2 2 2 2 2 2 2 2 2 2 2
3 5 5 4 7 6 4 1 2 5 6 6 7 8 7 4 4 4 3 4 5 5 7 6 4 2 4 1 3 4 5 4 5 6 5 4 3 2 1 2 2 2 2 2 2 2 2 2 2 2 2 2
4 4 3 4 2 5 8 8 6 3 1 1 3 6 7 8 7 5 5 5 4 4 2 4 2 2 2 4 2 2 2 2 3 5 5 4 3 2 3 3 2 2 2 2 2 2 2 1 1 1 2 2
4 3 4 4 5 6 5 0 2 4 2 3 5 2 2 5 8 7 7 6 6 5 5 4 2 3 3 2 2 5 0 1 3 2 2 4 3 4 3 3 2 2 2 2 1 2 1 1 1 1 1 1
4 4 5 2 2 2 2 5 2 2 2 1 2 3 2 2 3 5 7 8 8 4 3 3 4 3 3 3 3 2 1 0 2 1 2 3 3 3 4 2 2 1 1 1 1 1 1 1 1 1 1 1
4 4 3 5 3 4 2 2 3 1 3 0 1 2 3 1 1 2 5 5 4 7 5 3 3 4 3 3 2 4 3 3 3 4 3 3 3 3 2 2 1 1 1 1 1 1 1 1 1 0 0 0
5 4 5 3 4 6 5 5 4 2 1 4 4 4 4 3 1 1 3 6 6 4 4 3 1 0 2 3 3 3 4 3 1 2 0 2 4 5 4 2 1 1 1 0 1 1 1 1 0 1 0 0
6 6 5 5 3 2 3 6 5 6 7 8 8 8 8 7 6 4 2 2 1 1 4 4 3 2 3 2 1 2 3 2 2 1 1 2 2 2 2 2 1 1 1 1 0 0 0 0 1 1 0 1
7 7 9 9 9 9 9 8 8 8 9 7 8 8 7 8 8 6 5 5 3 3 2 1 2 1 4 5 1 2 3 3 3 3 2 3 3 3 2 2 2 1 1 2 0 0 1 0 0 1 1 1
9 10 10 9 10 10 10 9 8 9 7 8 8 8 9 8 8 8 7 6 6 6 6 6 7 6 5 5 5 4 4 3 3 2 2 3 2 2 1 0 1 1 2 3 2 3 3 2 1 1 1 1
11 11 11 10 10 11 10 9 10 8 9 9 8 9 9 9 9 9 7 6 6 7 6 5 6 6 4 3 5 4 4 4 3 4 5 3 3 2 3 3 3 3 2 3 3 3 3 3 3 2 2 2
11 11 10 9 9 9 10 9 9 9 9 8 9 10 9 11 10 10 10 8 7 6 6 6 6 5 4 4 4 5 4 5 5 4 4 3 4 3 3 3 3 2 2 1 2 2 1 2 2 3 3 3
13 12 12 12 11 11 12 11 10 9 8 9 10 9 9 10 10 12 11 11 10 9 9 7 7 7 6 5 6 5 5 4 3 4 4 4 4 3 2 3 2 1 2 2 2 2 2 2 1 2 2 2
11 11 11 11 11 12 13 11 10 9 9 10 9 9 10 9 8 10 11 11 9 10 9 8 8 8 8 6 6 6 6 6 5 5 3 4 4 3 2 3 3 2 2 2 3 2 2 3 2 3 3 3
10 11 12 10 10 12 11 10 10 8 9 9 9 10 10 10 9 10 11 11 11 9 8 8 8 9 8 7 6 6 6 5 6 6 4 3 2 2 3 3 2 1 2 4 3 3 3 3 4 3 3 2
8 8 8 9 8 11 10 9 9 9 10 9 10 9 9 9 9 10 10 9 8 8 8 7 8 8 7 7 6 7 8 7 6 4 2 3 3 5 4 3 1 1 2 3 4 4 3 3 4 4 2 3
6 8 8 9 11 9 7 8 8 10 9 9 9 10 10 11 10 10 10 9 8 8 8 8 8 9 8 7 8 8 8 7 7 5 4 3 4 5 4 4 3 3 3 4 3 1 3 4 1 3 3 2
9 7 7 10 7 9 8 8 9 9 9 9 9 11 11 11 10 10 10 9 9 10 10 10 9 10 9 8 8 8 8 8 7 8 8 5 4 4 4 4 5 4 4 3 5 6 6 2 3 2 2 3
9 7 6 9 6 8 9 8 8 9 8 8 10 11 11 10 11 11 11 11 10 9 10 10 10 9 8 10 8 8 9 9 11 9 9 8 6 4 3 2 3 5 6 4 5 3 3 3 6 2 2 1
9 11 11 10 9 9 9 8 7 9 9 10 12 13 11 11 10 11 11 11 11 10 10 10 9 8 9 9 9 8 9 10 10 10 9 9 8 5 6 6 6 5 5 4 6 5 4 4 2 6 3 7
6 8 9 8 8 7 8 8 7 9 11 9 9 10 12 11 10 11 11 11 12 11 11 11 10 9 9 9 9 8 9 9 8 8 8 8 8 9 5 6 5 7 6 7 5 3 3 3 2 3 8 12
3 4 5 5 6 8 9 10 9 10 9 8 9 9 7 10 11 10 11 11 11 12 11 11 11 10 10 10 9 9 8 7 8 10 10 9 7 9 8 4 6 6 7 5 8 6 3 1 2 6 7 6
6 8 8 10 10 10 8 11 7 6 5 7 7 7 9 9 10 11 11 11 11 11 11 10 10 10 10 9 9 8 9 9 9 8 8 7 8 7 7 7 7 7 6 3 7 7 5 4 1 1 3 4
Wind_Direction
185 190 194 193 187 191 186 184 169 166 185 175 172 188 222 208 215 160 183 186 185 201 169 167 164 154 159 135 120 96 48 38 44 94 96 99 93 84 77 73 73 69 55 54 59 65 61 56 52 43 32 55
204 186 185 191 196 179 182 178 173 168 183 186 168 156 171 162 106 134 141 155 197 182 201 154 149 158 153 139 126 71 60 72 88 96 98 90 86 81 78 75 73 73 61 55 60 62 59 55 49 45 32 51
194 197 184 181 178 184 176 175 177 174 175 187 164 151 132 113 114 126 130 143 159 161 189 129 149 152 160 155 122 93 85 88 98 100 94 89 83 79 77 75 71 71 67 63 62 64 62 51 50 46 43 44
188 186 198 180 173 178 179 172 173 173 176 161 148 134 128 120 117 128 145 153 147 169 188 181 144 157 203 168 126 100 93 103 104 101 96 92 84 80 73 68 63 65 65 60 63 65 61 57 53 50 43 34
203 184 185 206 174 176 180 173 172 170 162 151 130 132 125 125 135 145 129 146 154 167 183 188 156 143 166 149 121 120 114 113 110 103 98 89 87 83 79 69 59 43 54 51 53 56 53 55 56 41 34 33
191 178 182 198 198 174 179 185 169 182 181 165 161 138 139 163 155 142 140 136 150 182 170 179 176 156 154 123 104 107 125 130 121 110 103 99 94 89 84 76 68 50 35 42 40 40 37 41 42 28 28 25
181 173 175 205 200 172 174 173 190 166 182 178 174 171 176 175 183 139 137 147 130 148 194 200 191 177 175 174 164 121 125 125 126 114 105 104 100 95 85 76 72 72 55 32 37 35 30 30 24 18 21 25
181 179 170 175 201 213 181 175 198 194 193 185 171 174 164 173 178 151 157 141 149 161 191 92 341 298 160 125 119 118 125 128 124 111 116 115 107 93 72 82 78 78 88 60 37 43 33 29 15 15 12 13
194 171 179 181 207 215 295 209 185 191 189 181 188 192 181 183 201 177 147 165 160 184 193 165 251 156 333 312 136 131 116 128 131 125 127 115 97 114 111 103 94 111 91 77 63 47 35 33 24 15 16 4
175 161 173 172 180 225 251 341 259 191 183 193 190 181 181 166 185 191 181 191 182 201 228 238 186 181 135 34 332 154 125 157 143 139 146 145 137 141 113 91 105 88 96 113 93 74 49 30 22 13 9 4
181 174 152 147 156 192 196 237 225 221 179 176 233 210 187 180 179 185 188 200 208 219 214 228 249 126 138 139 143 313 133 207 162 150 152 151 142 129 127 108 106 102 85 67 97 82 74 48 31 16 358 356
172 156 150 164 174 201 245 87 296 263 270 173 172 245 302 221 189 189 190 194 204 187 173 192 164 167 154 140 156 165 125 162 226 151 127 137 139 139 127 135 124 110 95 78 65 91 74 82 60 27 9 351
134 137 143 122 98 28 260 243 150 14 36 154 118 129 141 35 309 194 200 202 193 164 173 151 154 152 183 149 140 109 23 216 215 146 153 147 140 145 135 131 135 123 96 87 51 45 68 41 56 52 32 13
116 121 103 115 88 118 33 337 345 76 39 134 194 151 105 116 167 249 235 204 185 175 186 150 171 186 189 148 141 144 178 192 226 194 157 132 134 119 108 142 132 148 133 96 62 35 39 40 11 36 23 14
120 92 107 75 74 32 4 343 354 301 79 13 15 31 29 60 93 129 184 180 180 166 162 182 183 72 177 148 178 172 183 164 159 336 37 139 153 163 160 147 125 151 159 137 114 57 8 33 357 27 350 281
69 81 58 68 65 108 43 13 4 22 22 25 29 25 26 10 3 17 116 118 162 145 138 150 155 101 192 162 159 169 113 88 59 112 32 99 87 89 100 116 133 130 189 201 152 131 72 86 359 1 346 321
53 52 52 46 48 41 44 41 40 39 33 34 33 31 37 37 37 35 19 13 52 66 28 74 104 81 38 36 46 37 55 87 93 93 130 94 75 77 105 143 154 147 179 215 192 21 54 10 295 349 314 311
59 58 57 55 55 53 56 50 50 44 38 36 34 33 28 33 37 32 34 54 52 41 41 42 39 37 38 31 40 43 49 59 44 31 346 18 30 35 15 5 22 354 358 9 14 348 355 324 332 328 298 291
68 64 65 61 57 56 54 57 53 45 45 39 41 39 31 23 35 27 29 41 65 66 73 65 56 50 47 63 67 65 56 65 57 41 42 27 32 62 33 19 42 24 8 351 351 343 340 331 329 312 310 313
75 72 71 66 63 62 56 57 51 48 43 39 42 40 36 30 37 34 34 31 40 61 55 60 55 46 36 52 72 74 70 70 61 64 76 57 43 29 44 37 39 47 18 1 317 308 300 303 306 309 308 312
74 73 69 67 61 57 55 47 44 43 38 45 43 36 36 29 31 38 35 32 37 51 40 39 51 42 37 49 66 63 64 67 76 80 82 64 72 101 96 74 52 31 14 332 290 275 276 246 251 253 255 259
81 79 78 73 70 66 62 52 48 41 36 41 39 36 36 21 29 40 38 36 32 47 46 40 38 46 30 35 52 58 52 52 46 51 42 73 39 17 25 41 20 14 347 303 295 294 286 282 261 259 241 216
88 86 82 78 74 69 66 62 56 47 48 41 39 39 28 23 29 32 32 33 32 41 38 40 37 46 34 27 40 53 51 41 41 42 16 60 93 76 77 110 102 336 293 287 283 294 288 274 257 259 259 261
79 73 68 75 76 63 57 61 59 50 53 45 45 38 35 35 39 38 39 33 25 42 41 44 40 45 37 37 41 47 45 34 33 23 2 12 35 55 53 52 35 311 311 290 288 298 286 247 266 262 280 279
60 80 90 64 58 65 54 59 60 55 49 51 50 44 41 38 38 36 42 39 42 43 50 51 49 48 42 45 54 55 54 43 36 22 18 25 22 24 38 31 5 2 337 336 337 310 286 304 287 284 275 304
70 58 69 91 78 83 62 52 50 52 42 46 49 46 44 42 36 36 40 37 41 43 41 44 42 40 36 32 46 57 54 51 46 35 35 27 50 39 37 44 355 351 325 40 354 326 328 307 314 287 33 10
80 74 69 86 91 86 86 63 67 69 58 50 52 46 43 41 39 37 38 33 36 42 40 45 47 41 37 37 30 41 42 36 37 28 29 29 37 36 54 68 27 11 24 360 321 262 288 352 338 9 44 16
84 87 90 80 89 80 76 86 76 74 59 50 47 44 37 38 38 39 43 35 34 39 40 42 46 44 41 38 33 36 41 36 33 26 24 22 28 23 36 22 21 23 7 18 351 12 357 313 344 326 55 344
91 106 95 98 91 89 93 69 58 59 50 47 52 53 39 35 35 39 42 39 39 39 39 37 37 42 43 44 35 37 40 39 33 30 29 21 29 31 26 31 20 15 7 14 28 15 351 343 347 4 328 333
38 56 84 103 92 75 69 60 46 49 53 49 48 55 52 46 39 39 44 40 38 39 40 39 35 35 39 39 39 38 43 37 32 29 28 21 26 29 21 38 40 19 8 33 31 27 69 134 307 326 325 340
86 79 75 75 77 84 85 97 70 69 62 71 66 64 56 53 45 40 45 42 40 39 40 42 38 37 38 39 38 33 39 39 33 31 29 18 33 31 24 24 53 36 2 354 28 11 21 21 6 260 324 329